Flag for U.S.A. Weather past 2 weeks in Escondido, California, U.S.A.

Now
56 °F

Fog.


Feels Like: 56 °F
Forecast: 56 / 73 °F
Wind: 3 mph from West

Location: Ramona Airport

Current Time: May 26, 2015 at 2:57:24 AM

Latest Report: May 26, 2015 at 1:53 AM


Visibility: 3 mi

Pressure: 29.95 "Hg

Humidity: 93%

Dew point: 54 °F

Location of EscondidoLocation

Historic Weather in Escondido — Graph

°F

Escondido temperature yesterday

Maximum temperature yesterday: 66 °F (at 4:00 PM)
Minimum temperature yesterday: 52 °F (at 1:53 AM)
Average temperature yesterday: 58 °F

Past Weeks' High & Low Weather Summary

 TemperatureHumidityPressure
High79 °F (May 11, 1:53 PM)100% (May 25, 3:53 AM)30.11 "Hg (May 25, 3:53 AM)
Low47 °F (May 11, 6:02 AM)34% (May 12, 5:53 PM)29.79 "Hg (May 15, 3:53 PM)
Average57 °F76%29.96 "Hg
* Reported May 11 1:53 AM — May 26 1:53 AM, Escondido, Weather by CustomWeather, © 2015

Note: Actual official high and low records may vary slightly from our data, if they occured in-between our weather recording intervals... More about our weather records

Advertising

Escondido weather history for previous 24 hours

 ConditionsComfort  
Time TempWeatherWind HumidityBarometerVisibility
1:53 AM
Tue, May 26
56 °FFog.3 mph93%29.95 "Hg3 mi
12:53 AM56 °FFog.6 mph93%29.96 "Hg5 mi
11:53 PM
Mon, May 25
56 °FFog.6 mph93%29.97 "Hg6 mi
10:53 PM56 °FLow clouds.5 mph93%29.97 "Hg8 mi
9:53 PM57 °FLow clouds.7 mph87%29.97 "Hg9 mi
8:53 PM57 °FLow clouds.6 mph90%29.96 "Hg10 mi
7:53 PM58 °FOvercast.9 mph87%29.95 "Hg10 mi
6:53 PM60 °FPartly sunny.9 mph80%29.94 "Hg8 mi
5:53 PM63 °FPartly sunny.10 mph75%29.93 "Hg8 mi
4:53 PM66 °FSunny.9 mph68%29.93 "Hg10 mi
4:00 PM66 °FPartly sunny.9 mph68%29.96 "Hg10 mi
2:53 PM65 °FPartly sunny.6 mph68%29.96 "Hg10 mi
1:53 PM61 °FMostly cloudy.7 mph81%29.98 "Hg10 mi
12:53 PM61 °FMore clouds than sun.8 mph78%29.98 "Hg10 mi
11:53 AM62 °FOvercast.5 mph70%29.99 "Hg10 mi
10:53 AM60 °FOvercast.5 mph72%29.99 "Hg10 mi
9:53 AM57 °FOvercast.No wind81%29.99 "Hg10 mi
8:53 AM56 °FOvercast.3 mph87%29.99 "Hg8 mi
7:53 AM55 °FFog.6 mph93%29.97 "Hg5 mi
7:00 AM55 °FFog.5 mph90%29.97 "Hg6 mi
5:53 AM54 °FFog.No wind93%29.94 "Hg6 mi
4:53 AM54 °FFog.3 mph93%29.93 "Hg3 mi
3:53 AM53 °FFog.No wind100%29.94 "Hg2 mi
3:03 AM53 °FFog.No wind93%29.96 "Hg2 mi
2:53 AM52 °FFog.No wind97%29.94 "Hg3 mi
Weather by CustomWeather, © 2015

See weather overviewHow to use our weather pages